SCP
0 0 0 0 0 0 0 0 0 0 0 0 0 0 0 0 0 0 0 -0 -0 -0 -0 -0 -0 -0 -0 -0 -0 -0 -0 -0 -0 -0 -0 -0 -0 -0 -0 -0 -0 -0 -0 -0 -0 -0 -0 -0 -0
0 0 0 0 0 0 0 0 0 0 0 0 0 0 0 0 0 0 0 -0 -0 -0 -0 -0 -0 -0 -0 -0 -0 -0 -0 -0 -0 -0 -0 -0 -0 -0 -0 -0 -0 -0 -0 -0 -0 -0 -0 -0 -0
0 0 0 0 0 0 0 0 0 0 0 0 0 0 0 0 0 0 0 -0 -0 -0 -0 -0 -0 -0 -0 -0 -0 -0 -0 -0 -0 -0 -0 -0 -0 -0 -0 -0 -0 -0 -0 -0 -0 -0 -0 -0 -0
0 0 0 0 0 0 0 0 0 0 0 0 0 0 0 0 0 0 0 -0 -0 -0 -0 -0 -0 -0 -0 -0 -0 -0 -0 -0 -0 -0 -0 -0 -0 -0 -0 -0 -0 -0 -0 -0 -0 -0 -0 -0 -0
0 0 0 0 0 0 0 0 0 0 0 0 0 0 0 0 0 0 0 -0 -0 -0 -0 -0 -0 -0 -0 -0 -0 -0 -0 -0 -0 -0 -0 -0 -0 -0 -0 -0 -0 -0 -0 -0 -0 -0 0 0 0
0 0 0 0 0 0 0 0 0 0 0 0 0 0 0 0 0 0 0 0 -0 -0 -0 0 -0 -0 -0 -0 -0 -0 -0 -0 -0 -0 -0 -0 -0 -0 -0 -0 0 -0 -0 -0 -0 0 0 0 0
0 0 0 0 0 0 0 0 0 0 0 0 0 0 0 0 0 0 0 0 -0 -0 -0 0 0 0 -0 -0 -0 -0 -0 -0 -0 -0 -0 -0 -0 -0 -0 -0 -0 -0 -0 -0 0 0 0 0 0
0 0 0 0 0 0 0 0 0 0 0 0 0 0 0 0 0 0 0 0 0 0 0 0 0 0 0 0 0 0 -0 -0 -0 -0 -0 -0 -0 -0 -0 -0 0 0 0 0 0 0 0 0 0
0 0 0 0 0 0 0 0 0 0 0 0 0 0 0 0 0 0 0 0 0 0 0 0 0 0 0 0 0 0 0 0 0 0 0 0 0 0 0 0 0 0 0 0 0 0 0 0 0
0 0 0 0 0 0 0 0 0 0 0 0 0 0 0 0 0 0 0 0 0 0 0 0 0 0 0 0 0 0 0 0 0 0 0 0 0 0 0 0 0 0 0 0 0 0 0 0 0
0 0 0 0 0 0 0 0 0 0 0 0 0 0 0 0 0 0 0 0 0 0 0 0 0 0 0 0 0 0 0 0 0 0 0 0 0 0 0 0 0 0 0 0 0 0 0 0 0
0 0 0 0 0 0 0 0 0 0 0 0 0 0 0 0 0 0 0 0 0 0 0 0 0 0 0 0 0 0 0 0 0 0 0 0 0 0 0 0 0 0 0 0 0 0 0 0 0
0 0 0 0 0 0 0 0 0 0 0 0 0 0 0 0 0 0 0 0 0 0 0 0 0 0 0 0 0 0 0 0 0 0 0 0 0 0 0 0 0 0 0 0 0 0 0 0 0
0 0 0 0 0 0 0 0 0 0 0 0 0 0 0 0 0 0 0 0 0 0 0 0 0 0 0 0 0 0 0 0 0 0 0 0 0 0 0 0 0 0 0 0 0 0 0 0 0
0 0 0 0 0 0 0 0 0 0 0 0 0 0 0 0 0 0 0 0 0 0 0 0 0 0 0 0 0 0 0 0 0 0 0 0 0 0 0 0 0 0 0 0 0 0 0 0 0
0 0 0 0 0 0 0 0 0 0 0 0 0 0 0 0 0 0 0 0 0 0 0 0 0 0 0 0 0 0 0 0 0 0 0 0 0 0 0 0 0 0 0 0 0 0 0 0 0
0 0 0 0 0 0 0 0 0 0 0 0 0 0 0 0 0 0 0 0 0 0 0 0 0 0 0 0 0 0 0 0 0 0 0 0 0 0 0 0 0 0 0 0 0 0 0 0 0
0 0 0 0 0 0 0 0 0 0 0 0 0 0 0 0 0 0 0 0 0 0 0 0 0 0 0 0 0 0 0 0 0 0 0 0 0 0 0 0 0 0 0 0 0 0 0 0 0
0 0 0 0 0 0 0 0 0 0 0 0 0 0 0 0 0 0 0 0 0 0 0 0 0 0 0 0 0 0 0 0 0 0 0 0 0 0 0 0 0 0 0 0 0 0 0 0 0
0 0 0 0 0 0 0 0 0 0 0 0 0 0 0 0 0 0 0 0 0 0 0 0 0 0 0 0 0 0 0 0 0 0 0 0 0 0 0 0 0 0 0 0 0 0 0 0 0
0 0 0 0 0 0 0 0 0 0 0 0 0 0 0 0 0 0 0 0 0 0 0 0 0 0 0 0 0 0 0 0 0 0 0 0 0 0 0 0 0 0 0 0 0 0 0 0 0
0 0 0 0 0 0 0 0 0 0 0 0 0 0 0 0 0 0 0 0 0 0 0 0 0 0 0 0 0 0 0 0 0 0 0 0 0 0 0 0 0 0 0 0 0 0 0 0 0
0 0 0 0 0 0 0 0 0 0 0 0 0 0 0 0 0 0 0 0 0 0 0 0 0 0 0 0 0 0 0 0 0 0 0 0 0 0 0 0 0 0 0 0 0 0 0 0 0
0 0 0 0 0 0 0 0 -0 0 0 0 0 0 0 0 0 0 0 0 0 0 0 0 0 0 0 0 0 0 0 0 0 0 0 0 0 0 0 0 0 0 0 0 0 0 0 0 0
0 0 0 0 0 0 0 0 0 0 0 0 0 0 0 0 0 0 0 0 0 0 0 0 0 0 0 0 0 0 0 0 0 0 0 0 0 0 0 0 0 0 0 0 0 0 0 0 0
0 0 0 0 0 0 0 0 0 0 0 0 0 0 0 0 0 0 0 0 0 0 0 0 0 0 0 0 0 0 0 0 0 0 0 0 0 0 0 0 0 0 0 0 0 0 0 0 0
0 0 0 0 0 0 0 0 0 0 0 0 0 0 0 0 0 0 0 0 0 0 0 0 0 0 0 0 0 0 0 0 0 0 0 0 0 0 0 0 0 0 0 0 0 0 0 0 0
0 0 0 0 0 0 0 0 0 0 0 0 0 0 0 0 0 0 0 0 0 0 0 0 0 0 0 0 0 0 0 0 0 0 0 0 0 0 0 0 0 0 0 0 0 0 0 0 0
0 0 0 0 0 0 0 0 0 0 0 0 0 0 0 0 0 0 0 0 0 0 0 0 0 0 0 0 0 0 0 0 0 0 0 0 0 0 0 0 0 0 0 0 0 0 0 0 0
0 0 0 0 0 0 0 0 0 0 0 0 0 0 0 0 -0 0 0 -0 0 0 0 0 0 0 0 0 0 0 0 0 0 0 0 0 0 0 0 0 0 0 0 0 0 0 0 0 0
Wind_Speed_500mb
32 27 23 12 8 10 5 6 7 8 7 6 15 15 18 10 5 6 26 22 21 18 24 21 17 12 8 6 4 4 4 7 25 28 25 30 21 30 31 18 15 26 30 29 29 30 32 34 38
31 23 11 8 7 7 6 7 14 7 13 16 15 16 7 5 8 26 32 23 21 22 23 21 18 10 10 7 5 6 3 15 21 27 24 33 20 29 21 14 14 27 29 27 27 31 31 30 32
24 13 8 6 3 2 4 6 12 16 12 5 6 9 8 6 11 37 31 30 22 21 25 22 17 10 10 7 8 11 10 22 18 24 17 32 24 22 25 15 8 27 28 27 28 29 28 28 28
30 7 4 6 7 6 10 13 30 11 7 9 10 10 11 7 9 17 48 37 26 17 21 23 17 13 11 9 10 15 17 22 24 22 20 29 30 24 19 12 13 26 24 22 24 25 25 25 27
20 6 6 4 9 4 6 30 21 11 15 11 5 9 9 9 9 33 46 37 30 25 19 23 19 16 13 10 9 12 15 21 27 19 24 26 29 22 27 19 15 21 21 20 19 20 21 22 23
13 8 7 5 10 6 8 9 12 15 23 19 7 17 8 11 14 39 46 35 29 29 24 24 22 20 17 12 11 11 10 9 13 18 17 17 26 23 19 24 20 16 18 16 15 16 17 19 20
3 5 6 6 9 1 5 11 2 9 19 12 11 9 12 21 17 44 47 35 29 30 24 26 25 22 21 19 14 10 8 7 6 9 9 16 19 22 19 20 23 20 15 13 11 12 13 15 17
6 6 7 6 7 2 13 9 3 12 3 16 11 9 12 28 21 40 42 34 28 26 27 24 27 26 25 24 21 15 11 10 10 9 7 9 13 17 17 19 21 21 15 11 9 9 9 11 13
2 6 4 8 10 4 10 6 4 5 7 4 6 8 11 21 23 31 45 35 33 30 31 27 24 29 28 27 27 25 19 16 16 14 14 12 13 14 15 18 20 20 16 11 7 7 6 7 11
6 6 12 6 9 6 2 5 6 2 6 7 12 9 15 23 25 33 39 43 44 42 38 34 28 25 29 31 31 29 24 22 21 19 19 18 20 20 21 20 19 20 18 13 9 5 4 5 7
8 9 7 5 11 17 9 13 10 6 4 16 28 31 31 32 31 35 38 39 48 42 41 40 34 30 30 30 30 32 30 27 26 23 24 24 27 26 26 22 22 20 19 17 13 10 9 6 5
6 18 21 10 4 7 8 16 20 10 17 18 15 37 37 36 36 38 41 43 50 50 43 43 42 40 38 32 37 33 32 31 30 27 26 29 29 28 24 23 23 24 23 22 19 16 14 10 7
9 13 27 24 10 6 10 15 12 30 22 28 28 25 42 35 32 33 34 38 44 53 47 45 47 48 47 43 43 39 35 37 34 30 27 31 33 29 28 29 28 28 28 27 24 22 19 13 16
11 24 29 33 26 12 8 22 8 10 19 20 20 23 36 37 35 31 37 41 43 44 51 54 50 53 53 53 50 46 40 39 37 35 30 33 36 35 35 34 35 32 31 30 26 22 21 18 18
14 7 9 15 10 9 2 13 15 40 43 41 36 36 35 38 39 43 38 38 40 44 44 55 54 52 58 58 55 52 44 44 45 43 38 38 39 40 39 39 38 35 33 31 30 29 26 24 20
4 1 7 6 19 19 13 28 13 21 37 49 51 39 39 39 49 48 43 39 40 40 51 53 56 56 58 62 60 58 53 48 48 49 46 44 44 45 45 44 43 39 38 38 37 36 35 34 32
6 8 12 12 19 13 20 21 25 41 40 40 55 56 47 48 48 54 49 44 43 44 46 59 61 61 57 62 64 63 60 57 53 52 54 51 49 50 50 49 46 43 44 45 43 42 41 39 35
17 8 3 5 13 20 34 34 15 31 44 44 34 38 50 48 43 53 59 56 48 47 48 51 68 65 63 60 66 68 67 66 62 60 61 60 58 55 55 55 54 50 51 50 49 47 44 43 38
9 7 6 3 7 19 12 16 17 33 38 42 52 47 50 51 50 53 41 68 58 51 50 56 61 68 67 69 67 75 79 76 73 70 67 66 66 62 60 60 61 59 60 57 53 50 49 49 45
10 9 11 11 5 5 16 39 32 36 34 46 49 54 49 58 56 54 58 54 66 61 58 59 64 68 68 69 67 71 77 80 77 73 71 70 72 67 66 65 66 67 65 63 61 58 57 55 52
24 36 25 15 5 3 15 38 32 28 48 58 73 86 82 75 66 64 61 72 67 70 66 68 65 71 76 74 69 69 71 79 82 84 84 83 76 73 68 68 68 70 70 70 67 65 64 63 58
35 29 21 18 9 8 8 15 15 12 27 29 52 67 78 85 99 91 79 72 69 75 74 71 67 71 74 79 80 80 78 79 80 87 90 90 85 81 78 74 73 72 71 74 72 71 71 68 68
22 22 28 14 11 1 13 7 14 15 13 35 31 57 59 60 67 72 78 74 71 72 69 74 73 73 72 82 85 87 87 83 78 82 86 86 86 85 84 82 80 80 79 79 76 75 76 76 75
12 17 14 8 11 14 23 17 17 13 18 7 14 3 4 13 8 4 12 10 21 21 21 50 78 76 74 76 81 88 92 88 87 88 90 88 84 83 84 86 85 84 86 87 85 81 80 79 78
14 18 10 11 11 11 15 18 35 17 13 8 12 37 40 36 38 34 20 10 5 13 16 21 29 49 69 76 80 88 93 95 94 94 94 92 89 89 87 84 85 86 87 88 89 91 90 87 87
36 23 10 11 9 10 18 16 13 23 37 16 22 45 47 47 41 41 32 30 33 25 21 14 17 37 48 61 76 83 90 95 100 100 99 97 95 92 89 86 83 83 83 84 87 91 94 94 93
27 24 11 10 3 4 9 14 18 20 10 18 34 43 48 35 32 33 34 37 41 36 27 23 20 22 25 44 59 70 79 86 97 101 103 101 99 97 93 91 89 84 81 80 81 85 90 95 96
19 20 11 7 13 11 10 10 10 7 14 16 23 37 36 28 27 26 34 41 41 37 34 30 32 30 29 28 41 56 66 75 82 89 99 102 101 98 94 92 90 86 85 82 80 81 82 89 92
12 20 14 11 7 14 6 10 10 18 19 23 24 42 32 21 14 23 40 41 44 36 36 35 36 35 30 29 29 35 51 60 66 78 86 92 94 98 96 93 92 93 92 88 85 84 83 87 88
16 11 14 17 17 7 5 8 10 18 19 28 24 27 25 16 16 23 44 45 45 40 40 41 45 44 40 39 36 31 33 45 59 70 78 84 90 92 94 93 93 95 95 93 92 89 87 90 91
Wind_Direction_500mb
350 345 333 3 36 57 6 337 120 97 59 79 73 68 118 75 59 162 136 210 204 173 165 159 149 144 135 120 88 32 1 98 111 112 111 114 124 104 114 115 99 107 100 102 98 92 88 92 97
350 350 4 343 74 49 313 70 77 77 113 92 76 58 78 100 88 147 150 186 203 172 172 167 155 145 135 115 86 63 80 115 114 122 124 121 116 115 118 124 97 101 106 103 95 92 90 97 101
350 346 352 86 81 101 130 110 127 89 92 95 83 71 84 114 108 152 165 175 187 176 175 168 162 154 139 112 85 70 111 119 123 118 122 127 117 125 134 143 98 117 114 103 98 95 93 92 101
351 16 302 86 260 304 122 162 126 108 82 82 85 71 89 117 163 154 156 165 190 171 161 171 169 161 152 126 100 92 103 119 131 128 135 134 128 133 132 135 145 118 119 108 97 95 94 96 103
1 311 27 348 287 144 104 149 133 154 156 151 123 164 107 168 208 151 157 179 184 171 195 182 179 169 168 147 121 104 108 129 145 142 145 138 140 144 149 137 128 122 114 113 106 97 90 91 106
345 4 32 330 342 146 91 122 155 157 149 139 127 132 156 206 204 164 161 178 190 188 185 191 189 179 178 172 158 135 128 128 134 147 159 153 147 151 181 154 134 136 135 121 106 100 92 90 95
46 69 243 292 280 124 146 146 165 169 159 166 145 101 163 194 206 166 170 176 194 222 201 197 197 194 187 180 180 169 150 153 142 150 169 164 163 160 173 154 145 154 148 139 122 105 97 96 95
357 85 297 280 287 176 163 137 88 46 153 140 156 171 191 199 199 174 172 180 193 214 200 203 203 205 202 193 190 199 195 189 182 173 176 162 176 179 175 164 166 165 166 162 141 122 103 94 94
235 56 272 278 346 12 140 113 96 88 126 150 154 172 192 180 192 181 177 183 188 208 218 215 209 210 209 206 203 204 209 209 201 198 192 191 185 188 190 179 177 173 179 178 162 139 120 115 100
164 144 224 35 9 30 48 121 145 193 189 181 132 212 186 185 196 191 188 188 197 202 222 227 211 208 213 211 211 214 218 217 211 210 207 203 198 195 194 195 188 188 189 193 196 189 173 162 152
192 204 271 5 37 19 12 18 337 182 278 228 207 210 204 198 203 204 206 202 199 212 217 216 220 218 219 212 216 216 222 222 223 219 214 213 208 205 206 203 203 204 205 208 213 219 222 219 182
247 257 273 288 73 12 336 334 332 287 248 298 321 236 216 209 211 214 214 211 201 210 223 219 213 220 225 221 227 225 223 227 227 220 212 217 224 217 219 220 219 218 217 218 222 223 227 231 235
213 240 255 270 287 270 286 289 278 288 280 295 277 219 228 224 225 226 226 223 219 211 219 229 220 218 222 223 232 240 225 230 228 226 219 224 233 233 233 229 229 225 226 229 228 230 233 242 240
309 280 256 277 273 249 232 262 269 254 259 294 243 232 220 236 244 233 231 230 225 216 212 227 225 224 224 227 231 239 238 234 236 234 233 232 236 236 234 234 230 229 229 231 237 241 245 246 247
279 282 310 270 265 226 132 285 231 264 265 261 270 235 225 237 249 251 252 247 236 227 219 223 233 231 227 230 234 239 241 239 236 238 237 239 240 240 239 239 239 236 233 234 235 235 239 245 241
304 130 243 219 252 264 221 261 231 254 275 254 254 239 234 245 241 252 257 258 254 235 227 224 233 235 232 232 235 239 241 241 239 241 242 241 241 242 241 241 242 241 239 237 237 237 242 247 245
226 224 234 285 256 264 194 255 244 255 266 262 258 248 240 244 240 243 251 256 258 253 235 229 230 237 236 234 236 242 245 244 244 242 243 245 243 242 242 244 245 242 240 239 239 241 244 246 246
213 207 339 321 352 317 253 249 262 254 269 270 274 252 242 242 241 243 248 252 251 256 252 240 233 236 239 238 235 238 244 247 248 246 247 248 247 242 242 244 245 243 242 240 241 242 244 245 243
130 131 197 267 324 339 344 299 285 285 271 274 276 263 256 256 251 256 259 248 244 248 255 251 236 234 236 236 232 235 237 240 243 246 249 253 249 247 243 243 244 242 243 245 245 246 245 244 241
208 187 234 303 268 1 329 308 301 284 276 271 271 273 269 257 253 250 255 247 240 245 254 257 250 242 238 241 241 241 241 244 247 247 250 244 246 250 246 245 245 244 243 244 244 244 245 246 240
216 225 220 240 11 196 289 278 258 262 259 264 261 261 260 259 257 249 242 244 245 242 248 253 255 251 246 246 245 244 245 246 245 246 246 249 249 249 250 247 247 246 245 245 247 249 247 248 244
223 216 211 201 162 232 157 291 240 247 259 257 264 252 250 253 257 249 249 249 251 254 252 252 256 254 251 248 248 248 246 248 253 250 249 249 252 252 254 252 248 248 246 246 248 249 250 249 248
225 156 189 168 178 258 204 246 279 232 256 254 251 254 255 253 263 257 251 253 256 258 256 254 257 256 252 247 247 252 251 254 258 256 254 254 253 251 252 252 253 250 248 247 248 248 247 248 248
143 137 166 169 215 217 220 194 264 206 224 298 301 256 85 118 132 176 212 241 238 236 245 255 251 254 254 251 251 251 254 255 258 254 254 255 255 255 251 250 251 252 251 250 249 251 251 250 251
202 153 181 206 205 229 178 179 250 283 263 194 167 107 99 92 89 83 72 53 297 271 266 257 253 254 256 257 254 253 254 257 260 261 260 258 257 255 256 252 251 250 251 252 252 251 251 251 251
194 201 160 198 200 235 133 222 253 238 256 173 157 126 113 105 86 71 64 63 52 42 37 14 280 260 252 253 255 257 257 256 258 260 261 261 261 263 263 261 258 258 255 255 255 253 253 252 253
182 209 215 104 50 61 208 270 302 269 173 124 115 118 117 95 83 75 65 47 36 27 18 10 9 0 296 263 255 255 256 257 257 260 259 261 263 264 263 263 263 261 259 257 255 255 254 254 254
191 158 193 185 183 219 258 252 224 94 98 112 110 118 126 93 76 49 33 24 20 12 4 1 350 334 334 320 270 257 256 257 257 260 260 261 265 265 264 263 263 263 261 260 257 255 255 254 254
211 197 205 171 166 206 173 258 249 190 144 127 129 125 127 107 64 34 22 16 11 11 7 356 349 344 335 331 320 279 264 260 260 258 259 260 262 263 262 263 262 262 261 260 257 255 254 253 254
329 201 239 193 186 236 158 222 113 131 144 139 116 122 120 93 41 2 6 3 3 8 8 3 357 351 348 343 329 313 287 270 262 260 260 262 262 262 261 260 255 256 256 256 255 254 252 251 251
Wind_Speed_850mb
32 27 23 12 8 10 5 6 7 8 7 6 15 15 18 10 5 6 26 22 21 18 24 21 17 12 8 6 4 4 4 7 25 28 25 30 21 30 31 18 15 26 30 29 29 30 32 34 38
31 23 11 8 7 7 6 7 14 7 13 16 15 16 7 5 8 26 32 23 21 22 23 21 18 10 10 7 5 6 3 15 21 27 24 33 20 29 21 14 14 27 29 27 27 31 31 30 32
24 13 8 6 3 2 4 6 12 16 12 5 6 9 8 6 11 37 31 30 22 21 25 22 17 10 10 7 8 11 10 22 18 24 17 32 24 22 25 15 8 27 28 27 28 29 28 28 28
30 7 4 6 7 6 10 13 30 11 7 9 10 10 11 7 9 17 48 37 26 17 21 23 17 13 11 9 10 15 17 22 24 22 20 29 30 24 19 12 13 26 24 22 24 25 25 25 27
20 6 6 4 9 4 6 30 21 11 15 11 5 9 9 9 9 33 46 37 30 25 19 23 19 16 13 10 9 12 15 21 27 19 24 26 29 22 27 19 15 21 21 20 19 20 21 22 23
13 8 7 5 10 6 8 9 12 15 23 19 7 17 8 11 14 39 46 35 29 29 24 24 22 20 17 12 11 11 10 9 13 18 17 17 26 23 19 24 20 16 18 16 15 16 17 19 20
3 5 6 6 9 1 5 11 2 9 19 12 11 9 12 21 17 44 47 35 29 30 24 26 25 22 21 19 14 10 8 7 6 9 9 16 19 22 19 20 23 20 15 13 11 12 13 15 17
6 6 7 6 7 2 13 9 3 12 3 16 11 9 12 28 21 40 42 34 28 26 27 24 27 26 25 24 21 15 11 10 10 9 7 9 13 17 17 19 21 21 15 11 9 9 9 11 13
2 6 4 8 10 4 10 6 4 5 7 4 6 8 11 21 23 31 45 35 33 30 31 27 24 29 28 27 27 25 19 16 16 14 14 12 13 14 15 18 20 20 16 11 7 7 6 7 11
6 6 12 6 9 6 2 5 6 2 6 7 12 9 15 23 25 33 39 43 44 42 38 34 28 25 29 31 31 29 24 22 21 19 19 18 20 20 21 20 19 20 18 13 9 5 4 5 7
8 9 7 5 11 17 9 13 10 6 4 16 28 31 31 32 31 35 38 39 48 42 41 40 34 30 30 30 30 32 30 27 26 23 24 24 27 26 26 22 22 20 19 17 13 10 9 6 5
6 18 21 10 4 7 8 16 20 10 17 18 15 37 37 36 36 38 41 43 50 50 43 43 42 40 38 32 37 33 32 31 30 27 26 29 29 28 24 23 23 24 23 22 19 16 14 10 7
9 13 27 24 10 6 10 15 12 30 22 28 28 25 42 35 32 33 34 38 44 53 47 45 47 48 47 43 43 39 35 37 34 30 27 31 33 29 28 29 28 28 28 27 24 22 19 13 16
11 24 29 33 26 12 8 22 8 10 19 20 20 23 36 37 35 31 37 41 43 44 51 54 50 53 53 53 50 46 40 39 37 35 30 33 36 35 35 34 35 32 31 30 26 22 21 18 18
14 7 9 15 10 9 2 13 15 40 43 41 36 36 35 38 39 43 38 38 40 44 44 55 54 52 58 58 55 52 44 44 45 43 38 38 39 40 39 39 38 35 33 31 30 29 26 24 20
4 1 7 6 19 19 13 28 13 21 37 49 51 39 39 39 49 48 43 39 40 40 51 53 56 56 58 62 60 58 53 48 48 49 46 44 44 45 45 44 43 39 38 38 37 36 35 34 32
6 8 12 12 19 13 20 21 25 41 40 40 55 56 47 48 48 54 49 44 43 44 46 59 61 61 57 62 64 63 60 57 53 52 54 51 49 50 50 49 46 43 44 45 43 42 41 39 35
17 8 3 5 13 20 34 34 15 31 44 44 34 38 50 48 43 53 59 56 48 47 48 51 68 65 63 60 66 68 67 66 62 60 61 60 58 55 55 55 54 50 51 50 49 47 44 43 38
9 7 6 3 7 19 12 16 17 33 38 42 52 47 50 51 50 53 41 68 58 51 50 56 61 68 67 69 67 75 79 76 73 70 67 66 66 62 60 60 61 59 60 57 53 50 49 49 45
10 9 11 11 5 5 16 39 32 36 34 46 49 54 49 58 56 54 58 54 66 61 58 59 64 68 68 69 67 71 77 80 77 73 71 70 72 67 66 65 66 67 65 63 61 58 57 55 52
24 36 25 15 5 3 15 38 32 28 48 58 73 86 82 75 66 64 61 72 67 70 66 68 65 71 76 74 69 69 71 79 82 84 84 83 76 73 68 68 68 70 70 70 67 65 64 63 58
35 29 21 18 9 8 8 15 15 12 27 29 52 67 78 85 99 91 79 72 69 75 74 71 67 71 74 79 80 80 78 79 80 87 90 90 85 81 78 74 73 72 71 74 72 71 71 68 68
22 22 28 14 11 1 13 7 14 15 13 35 31 57 59 60 67 72 78 74 71 72 69 74 73 73 72 82 85 87 87 83 78 82 86 86 86 85 84 82 80 80 79 79 76 75 76 76 75
12 17 14 8 11 14 23 17 17 13 18 7 14 3 4 13 8 4 12 10 21 21 21 50 78 76 74 76 81 88 92 88 87 88 90 88 84 83 84 86 85 84 86 87 85 81 80 79 78
14 18 10 11 11 11 15 18 35 17 13 8 12 37 40 36 38 34 20 10 5 13 16 21 29 49 69 76 80 88 93 95 94 94 94 92 89 89 87 84 85 86 87 88 89 91 90 87 87
36 23 10 11 9 10 18 16 13 23 37 16 22 45 47 47 41 41 32 30 33 25 21 14 17 37 48 61 76 83 90 95 100 100 99 97 95 92 89 86 83 83 83 84 87 91 94 94 93
27 24 11 10 3 4 9 14 18 20 10 18 34 43 48 35 32 33 34 37 41 36 27 23 20 22 25 44 59 70 79 86 97 101 103 101 99 97 93 91 89 84 81 80 81 85 90 95 96
19 20 11 7 13 11 10 10 10 7 14 16 23 37 36 28 27 26 34 41 41 37 34 30 32 30 29 28 41 56 66 75 82 89 99 102 101 98 94 92 90 86 85 82 80 81 82 89 92
12 20 14 11 7 14 6 10 10 18 19 23 24 42 32 21 14 23 40 41 44 36 36 35 36 35 30 29 29 35 51 60 66 78 86 92 94 98 96 93 92 93 92 88 85 84 83 87 88
16 11 14 17 17 7 5 8 10 18 19 28 24 27 25 16 16 23 44 45 45 40 40 41 45 44 40 39 36 31 33 45 59 70 78 84 90 92 94 93 93 95 95 93 92 89 87 90 91
Wind_Direction_850mb
350 345 333 3 36 57 6 337 120 97 59 79 73 68 118 75 59 162 136 210 204 173 165 159 149 144 135 120 88 32 1 98 111 112 111 114 124 104 114 115 99 107 100 102 98 92 88 92 97
350 350 4 343 74 49 313 70 77 77 113 92 76 58 78 100 88 147 150 186 203 172 172 167 155 145 135 115 86 63 80 115 114 122 124 121 116 115 118 124 97 101 106 103 95 92 90 97 101
350 346 352 86 81 101 130 110 127 89 92 95 83 71 84 114 108 152 165 175 187 176 175 168 162 154 139 112 85 70 111 119 123 118 122 127 117 125 134 143 98 117 114 103 98 95 93 92 101
351 16 302 86 260 304 122 162 126 108 82 82 85 71 89 117 163 154 156 165 190 171 161 171 169 161 152 126 100 92 103 119 131 128 135 134 128 133 132 135 145 118 119 108 97 95 94 96 103
1 311 27 348 287 144 104 149 133 154 156 151 123 164 107 168 208 151 157 179 184 171 195 182 179 169 168 147 121 104 108 129 145 142 145 138 140 144 149 137 128 122 114 113 106 97 90 91 106
345 4 32 330 342 146 91 122 155 157 149 139 127 132 156 206 204 164 161 178 190 188 185 191 189 179 178 172 158 135 128 128 134 147 159 153 147 151 181 154 134 136 135 121 106 100 92 90 95
46 69 243 292 280 124 146 146 165 169 159 166 145 101 163 194 206 166 170 176 194 222 201 197 197 194 187 180 180 169 150 153 142 150 169 164 163 160 173 154 145 154 148 139 122 105 97 96 95
357 85 297 280 287 176 163 137 88 46 153 140 156 171 191 199 199 174 172 180 193 214 200 203 203 205 202 193 190 199 195 189 182 173 176 162 176 179 175 164 166 165 166 162 141 122 103 94 94
235 56 272 278 346 12 140 113 96 88 126 150 154 172 192 180 192 181 177 183 188 208 218 215 209 210 209 206 203 204 209 209 201 198 192 191 185 188 190 179 177 173 179 178 162 139 120 115 100
164 144 224 35 9 30 48 121 145 193 189 181 132 212 186 185 196 191 188 188 197 202 222 227 211 208 213 211 211 214 218 217 211 210 207 203 198 195 194 195 188 188 189 193 196 189 173 162 152
192 204 271 5 37 19 12 18 337 182 278 228 207 210 204 198 203 204 206 202 199 212 217 216 220 218 219 212 216 216 222 222 223 219 214 213 208 205 206 203 203 204 205 208 213 219 222 219 182
247 257 273 288 73 12 336 334 332 287 248 298 321 236 216 209 211 214 214 211 201 210 223 219 213 220 225 221 227 225 223 227 227 220 212 217 224 217 219 220 219 218 217 218 222 223 227 231 235
213 240 255 270 287 270 286 289 278 288 280 295 277 219 228 224 225 226 226 223 219 211 219 229 220 218 222 223 232 240 225 230 228 226 219 224 233 233 233 229 229 225 226 229 228 230 233 242 240
309 280 256 277 273 249 232 262 269 254 259 294 243 232 220 236 244 233 231 230 225 216 212 227 225 224 224 227 231 239 238 234 236 234 233 232 236 236 234 234 230 229 229 231 237 241 245 246 247
279 282 310 270 265 226 132 285 231 264 265 261 270 235 225 237 249 251 252 247 236 227 219 223 233 231 227 230 234 239 241 239 236 238 237 239 240 240 239 239 239 236 233 234 235 235 239 245 241
304 130 243 219 252 264 221 261 231 254 275 254 254 239 234 245 241 252 257 258 254 235 227 224 233 235 232 232 235 239 241 241 239 241 242 241 241 242 241 241 242 241 239 237 237 237 242 247 245
226 224 234 285 256 264 194 255 244 255 266 262 258 248 240 244 240 243 251 256 258 253 235 229 230 237 236 234 236 242 245 244 244 242 243 245 243 242 242 244 245 242 240 239 239 241 244 246 246
213 207 339 321 352 317 253 249 262 254 269 270 274 252 242 242 241 243 248 252 251 256 252 240 233 236 239 238 235 238 244 247 248 246 247 248 247 242 242 244 245 243 242 240 241 242 244 245 243
130 131 197 267 324 339 344 299 285 285 271 274 276 263 256 256 251 256 259 248 244 248 255 251 236 234 236 236 232 235 237 240 243 246 249 253 249 247 243 243 244 242 243 245 245 246 245 244 241
208 187 234 303 268 1 329 308 301 284 276 271 271 273 269 257 253 250 255 247 240 245 254 257 250 242 238 241 241 241 241 244 247 247 250 244 246 250 246 245 245 244 243 244 244 244 245 246 240
216 225 220 240 11 196 289 278 258 262 259 264 261 261 260 259 257 249 242 244 245 242 248 253 255 251 246 246 245 244 245 246 245 246 246 249 249 249 250 247 247 246 245 245 247 249 247 248 244
223 216 211 201 162 232 157 291 240 247 259 257 264 252 250 253 257 249 249 249 251 254 252 252 256 254 251 248 248 248 246 248 253 250 249 249 252 252 254 252 248 248 246 246 248 249 250 249 248
225 156 189 168 178 258 204 246 279 232 256 254 251 254 255 253 263 257 251 253 256 258 256 254 257 256 252 247 247 252 251 254 258 256 254 254 253 251 252 252 253 250 248 247 248 248 247 248 248
143 137 166 169 215 217 220 194 264 206 224 298 301 256 85 118 132 176 212 241 238 236 245 255 251 254 254 251 251 251 254 255 258 254 254 255 255 255 251 250 251 252 251 250 249 251 251 250 251
202 153 181 206 205 229 178 179 250 283 263 194 167 107 99 92 89 83 72 53 297 271 266 257 253 254 256 257 254 253 254 257 260 261 260 258 257 255 256 252 251 250 251 252 252 251 251 251 251
194 201 160 198 200 235 133 222 253 238 256 173 157 126 113 105 86 71 64 63 52 42 37 14 280 260 252 253 255 257 257 256 258 260 261 261 261 263 263 261 258 258 255 255 255 253 253 252 253
182 209 215 104 50 61 208 270 302 269 173 124 115 118 117 95 83 75 65 47 36 27 18 10 9 0 296 263 255 255 256 257 257 260 259 261 263 264 263 263 263 261 259 257 255 255 254 254 254
191 158 193 185 183 219 258 252 224 94 98 112 110 118 126 93 76 49 33 24 20 12 4 1 350 334 334 320 270 257 256 257 257 260 260 261 265 265 264 263 263 263 261 260 257 255 255 254 254
211 197 205 171 166 206 173 258 249 190 144 127 129 125 127 107 64 34 22 16 11 11 7 356 349 344 335 331 320 279 264 260 260 258 259 260 262 263 262 263 262 262 261 260 257 255 254 253 254
329 201 239 193 186 236 158 222 113 131 144 139 116 122 120 93 41 2 6 3 3 8 8 3 357 351 348 343 329 313 287 270 262 260 260 262 262 262 261 260 255 256 256 256 255 254 252 251 251